Find Starlink 32454

NORAD ID: 62142 Int'l Des: 2024-224 Owner: SPXS Country: US Constellation: starlink operational
LEOCIRCULAR

Live Position

Loading 3D Globe...

About Starlink 32454

Description loading...

Upcoming Passes

Passes for default location (London). Set your location on the main map for personalized predictions.

Altitude History

Loading altitude history...

Two-Line Element Set

1 62142U 24224D 26121.65719359 .00031983 00000-0 11650-2 0 9995
2 62142 42.9997 226.5000 0001363 284.0384 76.0316 15.27629204 80496
Epoch: May 1, 2026 • Age: 12 hours

Current Status

Altitude 495.0 km
Velocity 7.62 km/s
Sub-Earth Point -42.25°S, 159.11°W
Launch Date Nov 30, 2024
Age 1.4 years
Type internet

Technical Details

Classification Payload
Mass 730.00 kg
Dry Mass 700.00 kg
Total Mass 730.00 kg
Length 0.30 m
Diameter 4.10 m
Span 29.00 m
Shape Box + pan
Manufacturer SPXS
Bus Type Starlink V2M
Phase Status In Orbit
Owner/State SPXS/US

Most Searched